RA70112 UCFM-UCFM

Flight info

Callsign RA70112
Flight time N/A
Altitude 6000
Route DCT
Aircraft DA62/L-SDFGRY/C

Departure

Time 2026-04-19 09:53
Airport Manas International Airport (UCFM)

Arrival

Time N/A
Airport Manas International Airport (UCFM)
Time Latitude Longitude Altitude Speed Heading
2026-04-19 09:45 43.05709 74.46678 2082 ft 0 kts 37°
2026-04-19 09:50 43.05711 74.46680 2082 ft 2 kts 37°
2026-04-19 09:50 43.05725 74.46688 2082 ft 4 kts
2026-04-19 09:51 43.05750 74.46623 2083 ft 5 kts 282°
2026-04-19 09:51 43.05769 74.46495 2083 ft 16 kts 304°
2026-04-19 09:51 43.05865 74.46451 2083 ft 4 kts 350°
2026-04-19 09:52 43.05939 74.46451 2083 ft 28 kts 28°
2026-04-19 09:52 43.05974 74.46562 2083 ft 0 kts 76°
2026-04-19 09:53 43.05989 74.46647 2082 ft 69 kts 78°
2026-04-19 09:53 43.06234 74.48364 2239 ft 273 kts 79°
2026-04-19 09:53 43.06711 74.51433 3831 ft 384 kts 78°
2026-04-19 09:53 43.07355 74.55356 5637 ft 454 kts 77°
2026-04-19 09:54 43.08081 74.59774 7390 ft 493 kts 76°
2026-04-19 09:54 43.08858 74.64442 9093 ft 510 kts 76°
2026-04-19 09:54 43.09664 74.69176 11018 ft 510 kts 77°
2026-04-19 09:54 43.10480 74.73892 13039 ft 508 kts 76°
2026-04-19 09:55 43.10523 74.74138 13153 ft 508 kts 76°
2026-04-19 09:55 43.11096 74.77406 14586 ft 558 kts 76°
2026-04-19 09:55 43.12058 74.82774 17075 ft 599 kts 76°
2026-04-19 09:55 43.13074 74.88346 19367 ft 621 kts 76°
2026-04-19 09:56 43.14117 74.94066 21675 ft 610 kts 78°
2026-04-19 09:56 43.15130 74.99728 24240 ft 617 kts 79°
2026-04-19 09:56 43.16154 75.05435 26016 ft 613 kts 79°
2026-04-19 09:56 43.16966 75.11099 28225 ft 602 kts 88°
2026-04-19 09:57 43.17027 75.16775 30144 ft 592 kts 100°
2026-04-19 09:57 43.16591 75.22376 30821 ft 604 kts 101°
2026-04-19 09:57 43.15968 75.28377 27161 ft 691 kts 105°
2026-04-19 09:57 43.14936 75.35220 26866 ft 757 kts 105°
2026-04-19 09:58 43.13832 75.42418 29409 ft 789 kts 105°
2026-04-19 09:58 43.12669 75.49943 32184 ft 826 kts 106°
2026-04-19 09:58 43.11428 75.57838 34686 ft 870 kts 106°
2026-04-19 09:58 43.10097 75.66149 36935 ft 915 kts 105°
2026-04-19 09:59 43.08682 75.74843 39189 ft 958 kts 104°
2026-04-19 09:59 43.07188 75.83935 41134 ft 1001 kts 104°
2026-04-19 09:59 43.05619 75.93411 43247 ft 1043 kts 104°
2026-04-19 09:59 43.03978 76.03280 45456 ft 1087 kts 103°
2026-04-19 10:00 43.02265 76.13546 47530 ft 1132 kts 103°
2026-04-19 10:00 43.00472 76.24263 49651 ft 1181 kts 103°
2026-04-19 10:00 42.98591 76.35467 51720 ft 1236 kts 103°
2026-04-19 10:00 42.96621 76.47170 53833 ft 1295 kts 103°
2026-04-19 10:01 42.94549 76.59441 56124 ft 1358 kts 103°
2026-04-19 10:01 42.92373 76.72292 58629 ft 1421 kts 103°
2026-04-19 10:01 42.90095 76.85711 61290 ft 1484 kts 104°
2026-04-19 10:01 42.87398 76.99603 63873 ft 1549 kts 108°
2026-04-19 10:02 42.85145 77.08988 65650 ft 1593 kts 110°
2026-04-19 10:02 42.81008 77.23316 68574 ft 1664 kts 115°
2026-04-19 10:02 42.75882 77.37928 71905 ft 1765 kts 119°
2026-04-19 10:02 42.69537 77.53056 75226 ft 1921 kts 123°
2026-04-19 10:03 42.61641 77.68776 78895 ft 2101 kts 128°
2026-04-19 10:03 42.52542 77.84705 82248 ft 2149 kts 129°
2026-04-19 10:03 42.43085 78.00893 85495 ft 2326 kts 129°
2026-04-19 10:03 42.28000 78.26460 91069 ft 2903 kts 129°
2026-04-19 10:04 42.18613 78.42012 94744 ft 3506 kts 130°
2026-04-19 10:04 41.99656 78.72448 0 ft 4998 kts 130°
2026-04-19 10:04 41.75246 79.10766 0 ft 5772 kts 131°
2026-04-19 10:04 41.48392 79.52182 0 ft 5841 kts 131°
2026-04-19 10:05 41.21942 79.92409 0 ft 5858 kts 131°
2026-04-19 10:05 40.95085 80.33071 0 ft 5862 kts 131°
2026-04-19 10:05 40.68221 80.73571 0 ft 5870 kts 131°
2026-04-19 10:05 40.41306 81.13982 0 ft 5883 kts 131°
2026-04-19 10:06 40.14343 81.54305 0 ft 5883 kts 131°
2026-04-19 10:06 39.87387 81.94459 0 ft 5884 kts 131°
2026-04-19 10:06 39.73476 82.15119 0 ft 5886 kts 131°
2026-04-19 10:13 39.66333 82.25711 0 ft 5889 kts 131°
2026-04-19 10:14 39.39309 82.65674 0 ft 5900 kts 131°
2026-04-19 10:14 39.12232 83.05542 0 ft 5913 kts 131°
2026-04-19 10:14 38.85096 83.45340 0 ft 5916 kts 131°
2026-04-19 10:14 38.58016 83.84905 0 ft 5917 kts 131°
2026-04-19 10:15 38.30838 84.24464 0 ft 5919 kts 131°
2026-04-19 10:15 38.03635 84.63909 0 ft 5918 kts 131°
2026-04-19 10:15 37.76536 85.03055 0 ft 5916 kts 131°
2026-04-19 10:15 37.49383 85.42135 0 ft 5918 kts 131°
2026-04-19 10:16 37.22242 85.81056 0 ft 5915 kts 131°
2026-04-19 10:16 36.95138 86.19784 0 ft 5904 kts 131°